Location: Moscow
(55.7500°N, 37.5830°E)
Time: 08:15:08
(UTC+03:00)

N. Korean satellite - Pass Details

Date: 01 November 2021
Orbit: 446 x 495 km, 97.3° (Epoch: 04 December)

Event Time Altitude Azimuth Distance (km) Brightness Sun altitude
Rises 04:44:09 0° 27° (NNE) 2,592 10.8 -24.4°
Reaches altitude 10° 04:46:58 10° 51° (NE) 1,695 10.1 -24.0°
Maximum altitude 04:49:11 15° 88° (E) 1,387 9.8 -23.7°
Drops below altitude 10° 04:51:22 10° 126° (SE) 1,672 9.9 -23.4°
Sets 04:54:06 0° 150° (SSE) 2,535 10.5 -23.0°
